Location: Luxembourg
(49.6117°N, 6.1300°E)
Time: 12:31:28
(UTC+01:00)

Envisat - Pass Details

Date: 01 February 2019
Orbit: 764 x 766 km, 98.2° (Epoch: 22 February)

Event Time Altitude Azimuth Distance (km) Brightness Sun altitude
Rises 06:58:39 0° 26° (NNE) 3,244 6.4 -11.5°
Reaches altitude 10° 07:01:41 10° 45° (NE) 2,311 5.9 -11.0°
Maximum altitude 07:05:12 18° 89° (E) 1,790 6.1 -10.4°
Drops below altitude 10° 07:08:40 10° 133° (SE) 2,299 6.6 -9.9°
Sets 07:11:40 0° 151° (SSE) 3,219 7.0 -9.4°
